Location: Unspecified
(0.0000°N, 0.0000°E)
Time: 04:22:15
(UTC+00:00)

Tiros 1 despin weight - All Passes

Search period start: 05 August 2015 00:00
Search period end: 15 August 2015 00:00
Orbit: 597 x 647 km, 48.2° (Epoch: 03 August)

Date Brightness Start Highest point End Pass type
(mag) Time Alt. Az. Time Alt. Az. Time Alt. Az.
05 Aug - 01:46:42 10° NNE 01:49:05 14° NE 01:51:41 10° E night (unlit)
05 Aug - 03:26:14 10° NW 03:30:45 45° SW 03:35:13 10° SSE night (unlit)
05 Aug - 13:54:46 10° S 13:58:05 21° SE 14:01:31 10° E daylight
05 Aug - 15:35:53 10° WSW 15:39:38 26° NW 15:43:19 10° N daylight
06 Aug - 02:02:43 10° NNW 02:07:03 37° NE 02:11:24 10° ESE night (unlit)
06 Aug - 03:45:29 10° W 03:48:40 17° SW 03:51:40 10° S night (unlit)
06 Aug - 14:11:36 10° SSW 14:15:58 61° SE 14:20:20 10° NE daylight
07 Aug - 02:20:11 10° NW 02:24:53 78° SW 02:29:34 10° SE night (unlit)
07 Aug - 12:50:16 10° SSE 12:52:10 13° SE 12:54:17 10° ESE daylight
07 Aug - 14:29:33 10° WSW 14:33:47 43° NW 14:37:59 10° NNE daylight
08 Aug - 00:57:29 10° N 01:01:08 23° NE 01:04:54 10° ESE night (unlit)
08 Aug - 02:38:41 10° WNW 02:42:44 28° SW 02:46:43 10° S night (unlit)
08 Aug - 13:06:06 10° SSW 13:10:08 35° SE 13:14:11 10° ENE daylight
08 Aug - 14:48:55 10° W 14:51:42 16° NW 14:54:18 10° NNW daylight
09 Aug - 01:14:23 10° NNW 01:19:01 63° NE 01:23:40 10° SE night (unlit)
09 Aug - 02:59:45 10° WSW 03:00:46 10° SW 03:01:27 10° SW night (unlit)
09 Aug - 13:23:32 10° SW 13:27:58 77° NW 13:32:21 10° NE daylight
09 Aug - 23:52:48 10° NNE 23:55:10 14° NE 23:57:48 10° E night (unlit)
10 Aug - 01:32:19 10° NW 01:36:50 46° SW 01:41:21 10° SSE night (unlit)
10 Aug - 12:00:55 10° S 12:04:15 21° SE 12:07:40 10° E daylight
10 Aug - 13:42:04 10° WSW 13:45:48 26° NW 13:49:27 10° N daylight
11 Aug - 00:08:49 10° NNW 00:13:07 37° NE 00:17:30 10° ESE night (unlit)
11 Aug - 01:51:34 10° W 01:54:45 17° SW 01:57:47 10° S night (unlit)
11 Aug - 12:17:45 10° SSW 12:22:07 61° SE 12:26:28 10° NE daylight
12 Aug - 00:26:16 10° NW 00:30:57 78° SW 00:35:40 10° SE night (unlit)
12 Aug - 10:56:24 10° SSE 10:58:19 13° SE 11:00:27 10° ESE daylight
12 Aug - 12:35:43 10° WSW 12:39:56 43° NW 12:44:07 10° NNE daylight
12 Aug - 23:03:34 10° N 23:07:13 23° NE 23:10:58 10° ESE night (unlit)
13 Aug - 00:44:45 10° WNW 00:48:49 28° SW 00:52:48 10° S night (unlit)
13 Aug - 11:12:14 10° SSW 11:16:16 35° SE 11:20:20 10° ENE daylight
13 Aug - 12:55:04 10° W 12:57:50 16° NW 13:00:25 10° NNW daylight
13 Aug - 23:20:27 10° NNW 23:25:05 62° NE 23:29:45 10° SE night (unlit)
14 Aug - 01:05:46 10° WSW 01:06:49 10° SW 01:07:34 10° SW night (unlit)
14 Aug - 11:29:39 10° SW 11:34:05 77° NW 11:38:29 10° NE daylight
14 Aug - 21:58:54 10° NNE 22:01:14 14° NE 22:03:49 10° E night (unlit)
14 Aug - 23:38:23 10° NW 23:42:53 46° SW 23:47:24 10° SSE night (unlit)
